To NAV CANADA Home Page Login to a new session Search on AWWS site Feedback and Comments Disclaimer Vers la page française équivalente Tips FAQ What's new on the site To the Forecasts and Observations / NOTAM section To "File a Flight Plan" website Publications and other links Update of the User's profile FIC Telephone Numbers My Weather Data Folder Route Weather Data Regional Weather Data Local Weather Data To the Forecasts and Observations / NOTAM section
Request Generated 02/26/2015 at 22:52:09 UTC . Weather information available at that time is displayed.

METAR/TAF

CHESTERFIELD INLET/NU    

METAR CYCS 262200Z 32005KT 15SM IC BKN180 M30/M34 A2987 RMK AC6
SLP116=
METAR CYCS 262100Z 32004KT 15SM IC BKN180 M29/M33 A2989 RMK AC5
SLP122=
METAR CYCS 262000Z 30006KT 15SM IC SCT180 M29/M33 A2989 RMK AC4
SLP123=

CYCS - No TAF is issued for this station

Your time UTC time
Weather data provided by Environment Canada and NAV CANADA